{"data":{"norad_id":65497,"epoch":"2026-05-24T18:57:38.277504Z","epoch_age_seconds":92951,"freshness":"FRESH","line1":"1 65497U 25198F   26144.79002636  .00034286  00000+0  10212-2 0  9996","line2":"2 65497  53.1590 276.6535 0001246  55.3844 304.7276 15.34399853 40285","mean_motion":15.34399853,"eccentricity":0.0001246,"inclination_deg":53.159,"raan_deg":276.6535,"arg_perigee_deg":55.3844,"mean_anomaly_deg":304.7276,"bstar":0.0010212,"rev_number":4028,"period_min":93.847767072225,"perigee_km":461.85130837375,"apogee_km":463.55604587049,"semimajor_km":6840.8406771221,"source":"CELESTRAK","updated_at":"2026-05-25T13:38:20.840472Z"}}